Location: D?uga
(50.2667°N, 19.7833°E)
Time: 22:29:59
(UTC+00:00)

Nadezhda 3 Rocket - Pass Details

Date: 23 May 2024
Orbit: 956 x 998 km, 82.9° (Epoch: 22 June)

Event Time Altitude Azimuth Distance (km) Brightness Sun altitude
Rises 01:28:49 0° 351° (N) 3,734 7.7 -9.7°
Reaches altitude 10° 01:31:23 10° 354° (N) 2,779 7.1 -9.4°
Maximum altitude 01:37:46 68° 78° (ENE) 1,072 4.5 -8.7°
Drops below altitude 10° 01:44:02 10° 161° (SSE) 2,744 6.1 -8.0°
Sets 01:46:34 0° 164° (SSE) 3,683 6.7 -7.8°
